• In Uzbekistan
  • List of Countries
  • For 7 days
  • Water Temperature
  • Satellite Maps
  • Weather Map
  • Weather Widgets
  • user-avatar
    Login

    Hourly Weather Thessaloniki

    Today, 23 August, Wednesday

    Time Temperature Precipitation Wind Pressure Humidity
    00:00 +21°C° 0 mm 1 mps 758 mmHg 58%
    01:00 +21°C° 0 mm 1 mps 758 mmHg 59%
    02:00 +21°C° 0 mm 1 mps 758 mmHg 64%
    03:00 +20°C° 0 mm 1 mps 758 mmHg 64%
    04:00 +20°C° 0 mm 1 mps 758 mmHg 65%
    05:00 +20°C° 0 mm 1 mps 758 mmHg 66%
    06:00 +21°C° 0 mm 1 mps 758 mmHg 61%
    07:00 +21°C° 0 mm 2 mps 758 mmHg 56%
    08:00 +24°C° 0 mm 1 mps 758 mmHg 54%
    09:00 +25°C° 0 mm 2 mps 758 mmHg 48%
    10:00 +27°C° 0 mm 2 mps 759 mmHg 42%
    11:00 +28°C° 0 mm 2 mps 759 mmHg 36%
    12:00 +29°C° 0 mm 2 mps 758 mmHg 33%
    13:00 +30°C° 0 mm 2 mps 758 mmHg 30%
    14:00 +30°C° 0 mm 2 mps 758 mmHg 30%
    15:00 +31°C° 0 mm 2 mps 758 mmHg 29%
    16:00 +31°C° 0 mm 3 mps 758 mmHg 29%
    17:00 +31°C° 0 mm 3 mps 758 mmHg 28%
    18:00 +29°C° 0 mm 2 mps 758 mmHg 34%
    19:00 +27°C° 0 mm 2 mps 758 mmHg 40%
    20:00 +25°C° 0 mm 2 mps 758 mmHg 46%
    21:00 +24°C° 0 mm 2 mps 759 mmHg 48%
    22:00 +23°C° 0 mm 1 mps 759 mmHg 49%
    23:00 +23°C° 0 mm 1 mps 760 mmHg 51%

    Tomorrow, 24 August, Thursday

    Time Temperature Precipitation Wind Pressure Humidity
    00:00 +22°C° 0 mm 1 mps 760 mmHg 51%
    01:00 +21°C° 0 mm 2 mps 760 mmHg 51%
    02:00 +20°C° 0 mm 2 mps 760 mmHg 50%
    03:00 +20°C° 0 mm 2 mps 760 mmHg 50%
    04:00 +19°C° 0 mm 2 mps 760 mmHg 50%
    05:00 +19°C° 0 mm 2 mps 760 mmHg 50%
    06:00 +20°C° 0 mm 2 mps 761 mmHg 46%
    07:00 +21°C° 0 mm 2 mps 761 mmHg 42%
    08:00 +24°C° 0 mm 2 mps 761 mmHg 39%
    09:00 +26°C° 0 mm 2 mps 761 mmHg 34%
    10:00 +27°C° 0 mm 2 mps 761 mmHg 30%
    11:00 +29°C° 0 mm 2 mps 761 mmHg 26%
    12:00 +30°C° 0 mm 2 mps 761 mmHg 24%
    13:00 +31°C° 0 mm 2 mps 761 mmHg 22%
    14:00 +32°C° 0 mm 2 mps 760 mmHg 20%
    15:00 +32°C° 0 mm 2 mps 760 mmHg 20%
    16:00 +33°C° 0 mm 3 mps 760 mmHg 21%
    17:00 +33°C° 0 mm 3 mps 759 mmHg 22%
    18:00 +30°C° 0 mm 3 mps 760 mmHg 29%
    19:00 +27°C° 0 mm 2 mps 760 mmHg 36%
    20:00 +25°C° 0 mm 2 mps 761 mmHg 43%
    21:00 +24°C° 0 mm 2 mps 761 mmHg 46%
    22:00 +23°C° 0 mm 1 mps 761 mmHg 49%
    23:00 +23°C° 0 mm 1 mps 762 mmHg 52%

    Day after tomorrow, 25 August, Friday

    Time Temperature Precipitation Wind Pressure Humidity
    00:00 +22°C° 0 mm 1 mps 762 mmHg 52%
    01:00 +22°C° 0 mm 1 mps 762 mmHg 52%
    02:00 +21°C° 0 mm 2 mps 762 mmHg 51%
    03:00 +20°C° 0 mm 2 mps 762 mmHg 50%
    04:00 +20°C° 0 mm 2 mps 762 mmHg 50%
    05:00 +20°C° 0 mm 2 mps 762 mmHg 49%
    06:00 +21°C° 0 mm 2 mps 762 mmHg 45%
    07:00 +24°C° 0 mm 2 mps 762 mmHg 40%
    08:00 +25°C° 0 mm 1 mps 763 mmHg 36%
    09:00 +27°C° 0 mm 1 mps 762 mmHg 33%
    10:00 +29°C° 0 mm 1 mps 762 mmHg 29%
    11:00 +31°C° 0 mm 1 mps 762 mmHg 25%
    12:00 +32°C° 0 mm 2 mps 762 mmHg 24%
    13:00 +32°C° 0 mm 2 mps 761 mmHg 23%
    14:00 +34°C° 0 mm 2 mps 761 mmHg 21%
    15:00 +34°C° 0 mm 3 mps 760 mmHg 23%
    16:00 +33°C° 0 mm 3 mps 760 mmHg 24%
    17:00 +33°C° 0 mm 3 mps 760 mmHg 25%
    18:00 +30°C° 0 mm 3 mps 760 mmHg 31%
    19:00 +27°C° 0 mm 2 mps 760 mmHg 36%
    20:00 +25°C° 0 mm 2 mps 761 mmHg 42%
    21:00 +25°C° 0 mm 1 mps 761 mmHg 43%
    22:00 +24°C° 0 mm 1 mps 761 mmHg 43%
    23:00 +24°C° 0 mm 1 mps 761 mmHg 44%

    26 August, Saturday

    Time Temperature Precipitation Wind Pressure Humidity
    00:00 +23°C° 0 mm 1 mps 761 mmHg 45%
    01:00 +23°C° 0 mm 1 mps 761 mmHg 46%
    02:00 +23°C° 0 mm 1 mps 761 mmHg 47%
    03:00 +22°C° 0 mm 1 mps 761 mmHg 49%
    04:00 +22°C° 0 mm 1 mps 761 mmHg 50%
    05:00 +21°C° 0 mm 1 mps 761 mmHg 51%
    06:00 +23°C° 0 mm 1 mps 761 mmHg 47%
    07:00 +24°C° 0 mm 1 mps 761 mmHg 43%
    08:00 +26°C° 0 mm 1 mps 761 mmHg 39%
    09:00 +28°C° 0 mm 1 mps 761 mmHg 35%
    10:00 +30°C° 0 mm 1 mps 761 mmHg 31%
    11:00 +32°C° 0 mm 1 mps 761 mmHg 26%
    12:00 +34°C° 0 mm 2 mps 760 mmHg 25%
    13:00 +35°C° 0 mm 2 mps 760 mmHg 23%
    14:00 +36°C° 0 mm 2 mps 759 mmHg 21%
    15:00 +35°C° 0 mm 2 mps 759 mmHg 21%
    16:00 +35°C° 0 mm 3 mps 759 mmHg 22%
    17:00 +35°C° 0 mm 3 mps 758 mmHg 22%
    18:00 +31°C° 0 mm 3 mps 759 mmHg 27%
    19:00 +29°C° 0 mm 2 mps 759 mmHg 31%
    20:00 +27°C° 0 mm 2 mps 759 mmHg 35%
    21:00 +26°C° 0 mm 2 mps 759 mmHg 36%
    22:00 +26°C° 0 mm 1 mps 759 mmHg 37%
    23:00 +25°C° 0 mm 1 mps 760 mmHg 37%

    27 August, Sunday

    Time Temperature Precipitation Wind Pressure Humidity
    00:00 +25°C° 0 mm 1 mps 759 mmHg 39%
    01:00 +24°C° 0 mm 1 mps 759 mmHg 40%
    02:00 +24°C° 0 mm 1 mps 759 mmHg 41%
    03:00 +24°C° 0 mm 1 mps 759 mmHg 43%
    04:00 +23°C° 0 mm 1 mps 759 mmHg 44%
    05:00 +23°C° 0 mm 1 mps 759 mmHg 46%
    06:00 +24°C° 0 mm 1 mps 759 mmHg 42%
    07:00 +26°C° 0 mm 1 mps 759 mmHg 39%
    08:00 +27°C° 0 mm 1 mps 759 mmHg 35%
    09:00 +30°C° 0 mm 1 mps 759 mmHg 31%
    10:00 +32°C° 0 mm 1 mps 759 mmHg 27%
    11:00 +34°C° 0 mm 1 mps 758 mmHg 23%
    12:00 +35°C° 0 mm 1 mps 758 mmHg 21%
    13:00 +36°C° 0 mm 1 mps 758 mmHg 20%
    14:00 +38°C° 0 mm 2 mps 757 mmHg 18%
    15:00 +38°C° 0 mm 2 mps 757 mmHg 19%
    16:00 +37°C° 0 mm 2 mps 757 mmHg 19%
    17:00 +37°C° 0 mm 3 mps 756 mmHg 20%
    18:00 +34°C° 0 mm 2 mps 757 mmHg 24%
    19:00 +31°C° 0 mm 2 mps 757 mmHg 28%
    20:00 +29°C° 0 mm 2 mps 757 mmHg 32%
    21:00 +28°C° 0 mm 2 mps 757 mmHg 32%
    22:00 +28°C° 0 mm 1 mps 758 mmHg 33%
    23:00 +27°C° 0 mm 1 mps 758 mmHg 34%

    28 August, Monday

    Time Temperature Precipitation Wind Pressure Humidity
    00:00 +27°C° 0 mm 1 mps 758 mmHg 35%
    01:00 +26°C° 0 mm 1 mps 758 mmHg 36%
    02:00 +26°C° 0 mm 1 mps 758 mmHg 37%
    03:00 +25°C° 0 mm 1 mps 758 mmHg 37%
    04:00 +25°C° 0 mm 1 mps 757 mmHg 38%
    05:00 +25°C° 0 mm 1 mps 757 mmHg 39%
    06:00 +26°C° 0 mm 2 mps 758 mmHg 36%
    07:00 +28°C° 0 mm 2 mps 758 mmHg 34%
    08:00 +29°C° 0 mm 2 mps 758 mmHg 31%
    09:00 +31°C° 0 mm 2 mps 757 mmHg 28%
    10:00 +34°C° 0 mm 1 mps 757 mmHg 24%
    11:00 +36°C° 0 mm 1 mps 757 mmHg 21%
    12:00 +37°C° 0 mm 2 mps 756 mmHg 20%
    13:00 +38°C° 0 mm 2 mps 756 mmHg 19%
    14:00 +39°C° 0 mm 2 mps 756 mmHg 18%
    15:00 +39°C° 0 mm 2 mps 755 mmHg 19%
    16:00 +38°C° 0 mm 3 mps 755 mmHg 19%
    17:00 +38°C° 0 mm 3 mps 755 mmHg 20%
    18:00 +35°C° 0 mm 3 mps 755 mmHg 24%
    19:00 +32°C° 0 mm 2 mps 755 mmHg 27%
    20:00 +30°C° 0 mm 2 mps 756 mmHg 31%
    21:00 +29°C° 0 mm 1 mps 756 mmHg 32%
    22:00 +28°C° 0 mm 1 mps 756 mmHg 33%
    23:00 +28°C° 0 mm 1 mps 756 mmHg 34%
    Show more